Find Local Weather

World > North America > United States > Connecticut

North Haven, Connecticut Regional Weather

Lat: 41.38N, Lon: 72.86W
Wx Zone: CTZ006
Feedback
Expires:201809241200;;131383
ASUS41 KOKX 241106
RWROKX

Regional Weather Roundup
National Weather Service New York NY
700 AM EDT MON SEP 24 2018

Note: "FAIR" indicates few or no clouds below 12,000 feet with no
significant weather and/or obstructions to visibility.


CTZ002-004>006-009-010-012-RIZ004-006-007-MAZ004-011-015-241200-
Southern New England

 In CT
  
CITY           SKY/WX    TMP DP  RH WIND       PRES   REMARKS
Bradley Intl   FAIR      46  44  93 N5        30.46R                  
Hartford       FAIR      50  48  93 NE7       30.45R                  
Danbury        FAIR      49  47  93 NE3       30.44R                  
Wtrbury/Oxford FAIR      50  45  83 NE12G18   30.43R                  
Norwalk Harbor   N/A     55 N/A N/A N10         N/A                   
Bridgeport     FAIR      54  48  80 NE13      30.41R                  
Meriden        FAIR      50  46  86 N8        30.44R                  
New Haven      FAIR      52  50  93 N9        30.41R                  
Chester        FAIR      50  48  93 N7        30.42R                  
Groton         FAIR      51  48  89 N8        30.41R                  
Willimantic    FAIR      48  48 100 N6        30.45R                  

 In RI
  
CITY           SKY/WX    TMP DP  RH WIND       PRES   REMARKS
Providence     FAIR      53  51  93 N10       30.44R                  
Block Island   FAIR      59  56  89 NE8G17    30.41R                  
Westerly       FAIR      51  50  96 NE5       30.42R                  
 
In MA
  
CITY           SKY/WX    TMP DP  RH WIND       PRES   REMARKS
Boston         CLOUDY    57  48  72 NE26G32   30.49R                  
Worcester      CLOUDY    49  47  93 NE13G20   30.47R                  
Westfield      FAIR      49  46  90 N12       30.47R                  
Provincetown   CLOUDY    58  51  78 NE20G29   30.46R                  
Nantucket      FAIR      58  52  80 NE9       30.41R                  
$$


SKY/WX - Weather  TMP - Temperature  DP - Dew Point  RH - Relative Humidity
WIND - Wind Direction/Speed PRES - Barometric Pressure